Time,TemperatureF,DewpointF,PressureIn,WindDirection,WindDirectionDegrees,WindSpeedMPH,WindSpeedGustMPH,Humidity,HourlyPrecipIn,Conditions,Clouds,dailyrainin,SolarRadiationWatts/m^2,SoftwareType,DateUTC
2013-09-06 00:01:00,66.0,46.0,-100.00,WNW,287,16.0,25.0,49,0.00,,,0.00,0.000000,,2013-09-06 07:01:00,
2013-09-06 00:02:00,64.0,45.0,-100.00,WNW,294,0.0,19.0,51,0.00,,,0.00,0.000000,,2013-09-06 07:02:00,
2013-09-06 00:23:00,64.0,45.0,-100.00,WNW,294,0.0,19.0,51,0.00,,,0.00,0.000000,,2013-09-06 07:23:00,
2013-09-06 00:32:00,64.0,45.0,-100.00,WNW,294,0.0,19.0,51,0.00,,,0.00,0.000000,,2013-09-06 07:32:00,
2013-09-06 00:42:00,64.0,45.0,-100.00,WNW,294,0.0,19.0,51,0.00,,,0.00,0.000000,,2013-09-06 07:42:00,
2013-09-06 00:52:00,64.0,45.0,-100.00,WNW,294,0.0,19.0,51,0.00,,,0.00,0.000000,,2013-09-06 07:52:00,
2013-09-06 02:43:00,67.0,35.0,-100.00,WNW,292,0.0,0.0,31,0.00,,,0.00,0.000000,,2013-09-06 09:43:00,
2013-09-06 06:02:00,63.0,48.0,-100.00,NW,305,0.0,0.0,57,0.00,,,0.00,0.000000,,2013-09-06 13:02:00,
2013-09-06 06:42:00,63.0,48.0,-100.00,NW,305,0.0,0.0,57,0.00,,,0.00,0.000000,,2013-09-06 13:42:00,
2013-09-06 06:52:00,63.0,48.0,-100.00,NW,305,0.0,0.0,57,0.00,,,0.00,0.000000,,2013-09-06 13:52:00,
2013-09-06 07:42:00,62.0,47.0,-100.00,NW,319,0.0,0.0,58,0.00,,,0.00,4.000000,,2013-09-06 14:42:00,
2013-09-06 07:52:00,62.0,47.0,-100.00,NW,319,0.0,0.0,58,0.00,,,0.00,4.000000,,2013-09-06 14:52:00,
2013-09-06 08:01:00,62.0,47.0,-100.00,NW,319,0.0,0.0,58,0.00,,,0.00,4.000000,,2013-09-06 15:01:00,
2013-09-06 08:02:00,66.0,48.0,-100.00,NW,314,0.0,0.0,53,0.00,,,0.00,121.000000,,2013-09-06 15:02:00,
2013-09-06 08:22:00,66.0,48.0,-100.00,NW,314,0.0,0.0,53,0.00,,,0.00,121.000000,,2013-09-06 15:22:00,
2013-09-06 08:34:00,66.0,48.0,-100.00,NW,314,0.0,0.0,53,0.00,,,0.00,121.000000,,2013-09-06 15:34:00,
2013-09-06 08:43:00,66.0,48.0,-100.00,NW,314,0.0,0.0,53,0.00,,,0.00,121.000000,,2013-09-06 15:43:00,
2013-09-06 08:53:00,66.0,48.0,-100.00,NW,314,0.0,0.0,53,0.00,,,0.00,121.000000,,2013-09-06 15:53:00,
2013-09-06 09:02:00,67.0,45.0,-100.00,WNW,303,0.0,0.0,45,0.00,,,0.00,318.000000,,2013-09-06 16:02:00,
2013-09-06 09:43:00,67.0,45.0,-100.00,WNW,303,0.0,0.0,45,0.00,,,0.00,318.000000,,2013-09-06 16:43:00,
2013-09-06 09:53:00,67.0,45.0,-100.00,WNW,303,0.0,0.0,45,0.00,,,0.00,318.000000,,2013-09-06 16:53:00,
2013-09-06 10:24:00,70.0,45.0,-100.00,WNW,303,10.0,22.0,41,0.00,,,0.00,516.000000,,2013-09-06 17:24:00,
2013-09-06 10:34:00,70.0,45.0,-100.00,WNW,303,10.0,22.0,41,0.00,,,0.00,516.000000,,2013-09-06 17:34:00,
2013-09-06 10:43:00,70.0,45.0,-100.00,WNW,303,10.0,22.0,41,0.00,,,0.00,516.000000,,2013-09-06 17:43:00,
2013-09-06 10:53:00,70.0,45.0,-100.00,WNW,303,10.0,22.0,41,0.00,,,0.00,516.000000,,2013-09-06 17:53:00,
2013-09-06 11:01:00,70.0,45.0,-100.00,WNW,303,10.0,22.0,41,0.00,,,0.00,516.000000,,2013-09-06 18:01:00,
2013-09-06 11:02:00,75.0,46.0,-100.00,North,10,8.0,18.0,36,0.00,,,0.00,683.000000,,2013-09-06 18:02:00,
2013-09-06 11:42:00,75.0,46.0,-100.00,North,10,8.0,18.0,36,0.00,,,0.00,683.000000,,2013-09-06 18:42:00,
2013-09-06 11:52:00,75.0,46.0,-100.00,North,10,8.0,18.0,36,0.00,,,0.00,683.000000,,2013-09-06 18:52:00,
2013-09-06 12:02:00,76.0,47.0,-100.00,ENE,57,11.0,21.0,36,0.00,,,0.00,807.000000,,2013-09-06 19:02:00,
2013-09-06 12:43:00,76.0,47.0,-100.00,ENE,57,11.0,21.0,36,0.00,,,0.00,807.000000,,2013-09-06 19:43:00,
2013-09-06 12:52:00,76.0,47.0,-100.00,ENE,57,11.0,21.0,36,0.00,,,0.00,807.000000,,2013-09-06 19:52:00,
2013-09-06 13:23:00,79.0,47.0,-100.00,ENE,61,11.0,23.0,32,0.00,,,-99.99,876.000000,,2013-09-06 20:23:00,
2013-09-06 13:32:00,79.0,47.0,-100.00,ENE,61,11.0,23.0,32,0.00,,,-99.99,876.000000,,2013-09-06 20:32:00,
2013-09-06 13:42:00,79.0,47.0,-100.00,ENE,61,11.0,23.0,32,0.00,,,-99.99,876.000000,,2013-09-06 20:42:00,
2013-09-06 13:52:00,79.0,47.0,-100.00,ENE,61,11.0,23.0,32,0.00,,,-99.99,876.000000,,2013-09-06 20:52:00,
2013-09-06 14:01:00,79.0,47.0,-100.00,ENE,61,11.0,23.0,32,0.00,,,-99.99,876.000000,,2013-09-06 21:01:00,
2013-09-06 14:02:00,80.0,43.0,-100.00,ENE,58,12.0,24.0,27,0.00,,,0.00,883.000000,,2013-09-06 21:02:00,
2013-09-06 14:43:00,80.0,43.0,-100.00,ENE,58,12.0,24.0,27,0.00,,,0.00,883.000000,,2013-09-06 21:43:00,
2013-09-06 14:54:00,80.0,43.0,-100.00,ENE,58,12.0,24.0,27,0.00,,,0.00,883.000000,,2013-09-06 21:54:00,
2013-09-06 15:02:00,82.0,45.0,-100.00,NE,55,10.0,23.0,27,0.00,,,0.00,835.000000,,2013-09-06 22:02:00,
2013-09-06 15:44:00,82.0,45.0,-100.00,NE,55,10.0,23.0,27,0.00,,,0.00,835.000000,,2013-09-06 22:44:00,
2013-09-06 15:53:00,82.0,45.0,-100.00,NE,55,10.0,23.0,27,0.00,,,0.00,835.000000,,2013-09-06 22:53:00,
2013-09-06 16:43:00,83.0,45.0,-100.00,NE,55,8.0,18.0,26,0.00,,,0.00,720.000000,,2013-09-06 23:43:00,
2013-09-06 16:52:00,83.0,45.0,-100.00,NE,55,8.0,18.0,26,0.00,,,0.00,720.000000,,2013-09-06 23:52:00,
2013-09-06 17:01:00,83.0,45.0,-100.00,NE,55,8.0,18.0,26,0.00,,,0.00,720.000000,,2013-09-07 00:01:00,
2013-09-06 17:02:00,82.0,41.0,-100.00,NE,46,7.0,16.0,23,0.00,,,0.00,558.000000,,2013-09-07 00:02:00,
2013-09-06 17:22:00,82.0,41.0,-100.00,NE,46,7.0,16.0,23,0.00,,,0.00,558.000000,,2013-09-07 00:22:00,
2013-09-06 17:32:00,82.0,41.0,-100.00,NE,46,7.0,16.0,23,0.00,,,0.00,558.000000,,2013-09-07 00:32:00,
2013-09-06 17:42:00,82.0,41.0,-100.00,NE,46,7.0,16.0,23,0.00,,,0.00,558.000000,,2013-09-07 00:42:00,
2013-09-06 17:52:00,82.0,41.0,-100.00,NE,46,7.0,16.0,23,0.00,,,0.00,558.000000,,2013-09-07 00:52:00,
2013-09-06 18:02:00,82.0,41.0,-100.00,ENE,58,7.0,14.0,23,0.00,,,0.00,366.000000,,2013-09-07 01:02:00,
2013-09-06 18:42:00,82.0,41.0,-100.00,ENE,58,7.0,14.0,23,0.00,,,0.00,366.000000,,2013-09-07 01:42:00,
2013-09-06 18:53:00,82.0,41.0,-100.00,ENE,58,7.0,14.0,23,0.00,,,0.00,366.000000,,2013-09-07 01:53:00,
2013-09-06 19:02:00,79.0,41.0,-100.00,NE,37,5.0,12.0,26,0.00,,,0.00,165.000000,,2013-09-07 02:02:00,
2013-09-06 19:43:00,79.0,41.0,-100.00,NE,37,5.0,12.0,26,0.00,,,0.00,165.000000,,2013-09-07 02:43:00,
2013-09-06 19:52:00,79.0,41.0,-100.00,NE,37,5.0,12.0,26,0.00,,,0.00,165.000000,,2013-09-07 02:52:00,
2013-09-06 20:02:00,75.0,41.0,-100.00,North,360,4.0,8.0,30,0.00,,,0.00,13.000000,,2013-09-07 03:02:00,
2013-09-06 20:23:00,75.0,41.0,-100.00,North,360,4.0,8.0,30,0.00,,,0.00,13.000000,,2013-09-07 03:23:00,
2013-09-06 20:34:00,75.0,41.0,-100.00,North,360,4.0,8.0,30,0.00,,,0.00,13.000000,,2013-09-07 03:34:00,
2013-09-06 20:45:00,75.0,41.0,-100.00,North,360,4.0,8.0,30,0.00,,,0.00,13.000000,,2013-09-07 03:45:00,
2013-09-06 20:55:00,75.0,41.0,-100.00,North,360,4.0,8.0,30,0.00,,,0.00,13.000000,,2013-09-07 03:55:00,
2013-09-06 21:02:00,75.0,35.0,-100.00,North,351,3.0,7.0,23,0.00,,,0.00,0.000000,,2013-09-07 04:02:00,
2013-09-06 21:24:00,75.0,35.0,-100.00,North,351,3.0,7.0,23,0.00,,,0.00,0.000000,,2013-09-07 04:24:00,
2013-09-06 21:34:00,75.0,35.0,-100.00,North,351,3.0,7.0,23,0.00,,,0.00,0.000000,,2013-09-07 04:34:00,
2013-09-06 21:43:00,75.0,35.0,-100.00,North,351,3.0,7.0,23,0.00,,,0.00,0.000000,,2013-09-07 04:43:00,
2013-09-06 21:54:00,75.0,35.0,-100.00,North,351,3.0,7.0,23,0.00,,,0.00,0.000000,,2013-09-07 04:54:00,
2013-09-06 22:02:00,75.0,34.0,-100.00,NW,324,4.0,7.0,22,0.00,,,0.00,0.000000,,2013-09-07 05:02:00,
2013-09-06 22:23:00,75.0,34.0,-100.00,NW,324,4.0,7.0,22,0.00,,,0.00,0.000000,,2013-09-07 05:23:00,
2013-09-06 22:33:00,75.0,34.0,-100.00,NW,324,4.0,7.0,22,0.00,,,0.00,0.000000,,2013-09-07 05:33:00,
2013-09-06 22:42:00,75.0,34.0,-100.00,NW,324,4.0,7.0,22,0.00,,,0.00,0.000000,,2013-09-07 05:42:00,
2013-09-06 22:52:00,75.0,34.0,-100.00,NW,324,4.0,7.0,22,0.00,,,0.00,0.000000,,2013-09-07 05:52:00,
2013-09-06 23:02:00,78.0,36.0,-100.00,North,354,5.0,8.0,22,0.00,,,0.00,0.000000,,2013-09-07 06:02:00,
2013-09-06 23:22:00,78.0,36.0,-100.00,North,354,5.0,8.0,22,0.00,,,0.00,0.000000,,2013-09-07 06:22:00,
2013-09-06 23:33:00,78.0,36.0,-100.00,North,354,5.0,8.0,22,0.00,,,0.00,0.000000,,2013-09-07 06:33:00,
2013-09-06 23:43:00,78.0,36.0,-100.00,North,354,5.0,8.0,22,0.00,,,0.00,0.000000,,2013-09-07 06:43:00,
2013-09-06 23:52:00,78.0,36.0,-100.00,North,354,5.0,8.0,22,0.00,,,0.00,0.000000,,2013-09-07 06:52:00,